Flag for Canada Weather past 2 weeks in Saint John, New Brunswick, Canada

Now
25 °F

Clear.


Feels Like: 14 °F
Forecast: 22 / 42 °F
Wind: 12 mph from Northwest

Location: Saint John


UV Index: 5 (Moderate)

Visibility: 15 mi


Pressure: 30.63 "Hg

Humidity: 69%

Dew point: 16 °F

Location of Saint JohnLocation

Historic Weather in Saint John

°F

Saint John temperature yesterday

Maximum temperature yesterday: 55 °F (at 12:00 AM)
Minimum temperature yesterday: 27 °F (at 10:00 PM)
Average temperature yesterday: 40 °F

Past Weeks' High & Low Weather Summary

 TemperatureHumidityPressure
High59 °F (Apr 15, 4:00 PM)100% (Apr 3, 12:00 AM)30.60 "Hg (Apr 3, 12:00 AM)
Low25 °F (Apr 2, 1:00 AM)31% (Apr 13, 4:00 PM)29.28 "Hg (Apr 9, 1:45 AM)
Average39 °F77%29.96 "Hg
* Reported Apr 2 1:00 AM — Apr 17 1:00 AM, Saint John, Weather by CustomWeather, © 2014

Note: Actual official high and low records may vary slightly from our data, if they occured in-between our weather recording intervals... More about our weather records

Advertising

Historic Weather Conditions — Data for Previous 24 hours

 ConditionsComfort  
Time TempWeatherWind HumidityBarometerVisibility
1:00 AM
Apr 17
27 °FClear.14 mph64%30.60 "Hg15 mi
12:00 AM27 °FClear.10 mph69%30.57 "Hg15 mi
11:00 PM
Apr 16
27 °FPassing clouds.9 mph64%30.52 "Hg15 mi
10:00 PM27 °FClear.8 mph69%30.50 "Hg15 mi
9:00 PM28 °FSunny.10 mph59%30.44 "Hg15 mi
8:00 PM30 °FPassing clouds.14 mph59%30.40 "Hg15 mi
7:00 PM34 °FScattered clouds.15 mph51%30.35 "Hg15 mi
6:00 PM34 °FScattered clouds.22 mph56%30.30 "Hg15 mi
5:00 PM36 °FPartly sunny.20 mph56%30.24 "Hg15 mi
4:00 PM36 °FBroken clouds.20 mph56%30.19 "Hg15 mi
3:00 PM34 °FMostly cloudy.18 mph60%30.15 "Hg15 mi
2:00 PM36 °FMostly cloudy.18 mph65%30.09 "Hg15 mi
1:00 PM32 °FMostly cloudy.21 mph75%30.04 "Hg15 mi
12:00 PM28 °FLight snow. Mostly cloudy.23 mph86%29.98 "Hg5 mi
11:46 AM28 °FLight snow. Mostly cloudy.25 mph86%29.97 "Hg3 mi
11:00 AM32 °FSleet. Low clouds.23 mph87%29.92 "Hg1 mi
10:00 AM36 °FSleet. Cloudy.13 mph87%29.85 "Hg10 mi
9:00 AM37 °FLight rain. Fog.14 mph87%29.80 "Hg5 mi
8:00 AM37 °FLight rain. Fog.17 mph93%29.76 "Hg6 mi
7:00 AM39 °FLight rain. Fog.14 mph93%29.68 "Hg6 mi
6:00 AM48 °FLight rain. Fog.16 mph94%29.64 "Hg3 mi
5:51 AM48 °FLight rain. Fog.16 mph94%29.64 "Hg3 mi
5:00 AM54 °FLight rain. Fog.30 mph100%29.61 "Hg2 mi
4:00 AM55 °FLight rain. Fog.32 mph94%29.61 "Hg2 mi
3:00 AM55 °FRain. Fog.36 mph100%29.62 "Hg2 mi
2:53 AM55 °FRain. Fog.38 mph94%29.63 "Hg1 mi
2:00 AM54 °FLight rain. Fog.33 mph100%29.66 "Hg1 mi
Weather by CustomWeather, © 2014

See weather overview